GW1480 Weather Reports


Display with metric or nautical units.
time (UTC)temp
F
wind
direction
speed
MPH
gust
MPH
rain 1hr
in
rain 24hr
in
rain mn
in
humidity
%
barometer
mb
20260506105711 59 229 0.0 0.0 0.00 0.00 0.48 98 1010.1
20260506105146 59 16 0.0 0.0 0.00 0.00 0.47 98 1010.1
20260506103921 59 252 0.0 0.0 0.00 0.00 0.45 98 1009.4
20260506103351 59 216 0.0 0.0 0.00 0.00 0.44 98 1009.4
20260506102708 59 196 0.0 0.0 0.00 0.00 0.44 98 1009.1
20260506102109 59 156 0.0 0.0 0.00 0.00 0.44 98 1008.8
20260506100950 59 61 2.0 2.0 0.00 0.00 0.44 98 1009.1
20260506095711 59 202 0.0 0.0 0.00 0.00 0.44 98 1009.1
20260506095149 59 153 0.0 0.0 0.00 0.00 0.44 98 1009.1
20260506094538 59 105 0.0 0.0 0.00 0.00 0.44 98 1009.4
20260506093321 59 218 0.0 0.0 0.00 0.00 0.41 98 1009.1
20260506092747 59 186 0.0 0.0 0.00 0.00 0.39 98 1009.1
20260506092113 59 183 0.0 0.0 0.00 0.00 0.38 98 1009.1
20260506090323 59 199 0.0 0.0 0.00 0.00 0.30 98 1009.1
20260506085736 59 216 0.0 0.0 0.00 0.00 0.28 98 1009.8
20260506085114 59 198 0.0 0.0 0.00 0.00 0.28 98 1009.1
20260506083926 59 207 0.0 0.0 0.00 0.00 0.28 97 1009.4
20260506083337 59 187 0.0 0.0 0.00 0.00 0.26 97 1009.4
20260506082737 59 230 0.0 0.0 0.00 0.00 0.24 97 1009.8
20260506082142 59 107 0.0 0.0 0.00 0.00 0.21 97 1009.4
20260506081514 59 39 0.0 0.0 0.00 0.00 0.19 97 1009.8
20260506080930 59 4 0.0 2.0 0.00 0.00 0.18 97 1009.4
20260506080318 59 188 0.0 0.0 0.00 0.00 0.13 97 1009.8
20260506073309 59 168 0.0 0.0 0.00 0.00 0.08 97 1010.1
20260506072709 58 211 0.0 0.0 0.00 0.00 0.08 97 1010.1
20260506072143 58 130 0.0 0.0 0.00 0.00 0.08 97 1010.1
20260506071550 58 128 0.0 0.0 0.00 0.00 0.06 97 1010.4
20260506070907 58 239 0.0 0.0 0.00 0.00 0.04 97 1010.8
20260506070330 58 231 0.0 0.0 0.00 0.00 0.04 96 1010.4
20260506062127 58 231 0.0 0.0 0.00 0.00 0.01 96 1010.4
20260506061510 58 227 0.0 0.0 0.00 0.00 0.01 96 1010.4
20260506060342 58 210 0.0 0.0 0.00 0.00 0.00 96 1010.4
20260506050949 59 226 0.0 0.0 0.00 0.00 0.00 95 1010.4
20260506050336 59 230 0.0 0.0 0.00 0.00 0.00 95 1010.1
20260506044516 59 229 0.0 0.0 0.00 0.00 0.00 94 1010.8
20260506043920 60 220 0.0 0.0 0.00 0.00 0.00 94 1010.8
20260506042725 60 210 0.0 0.0 0.00 0.00 0.00 94 1010.8
20260506042128 60 228 0.0 0.0 0.00 0.00 0.00 93 1011.1
20260506041543 60 234 0.0 0.0 0.00 0.00 0.00 93 1011.1
20260506040349 60 232 0.0 0.0 0.00 0.00 0.00 92 1010.8
20260506035712 60 227 0.0 0.0 0.00 0.00 0.00 90 1010.8
20260506035141 60 227 0.0 0.0 0.00 0.00 0.00 90 1010.8
20260506033948 60 222 0.0 0.0 0.00 0.00 0.00 89 1011.1
20260506033317 61 238 0.0 0.0 0.00 0.00 0.00 88 1011.1
20260506032715 61 220 0.0 0.0 0.00 0.00 0.00 88 1011.1
20260506032147 61 227 0.0 0.0 0.00 0.00 0.00 89 1011.1
20260506031550 61 225 0.0 0.0 0.00 0.00 0.00 87 1011.1
20260506030914 61 213 0.0 0.0 0.00 0.00 0.00 88 1010.8
20260506030347 61 231 0.0 0.0 0.00 0.00 0.00 87 1010.8
20260506025746 61 239 0.0 0.0 0.00 0.00 0.00 87 1011.1
20260506025129 61 224 0.0 0.0 0.00 0.00 0.00 87 1011.1
20260506024518 61 221 0.0 0.0 0.00 0.00 0.00 87 1011.1
20260506023916 61 124 0.0 0.0 0.00 0.00 0.00 88 1011.1
20260506023351 61 223 0.0 0.0 0.00 0.00 0.00 88 1011.5
20260506022716 61 224 0.0 0.0 0.00 0.00 0.00 88 1011.1
20260506022143 61 229 0.0 0.0 0.00 0.00 0.00 89 1011.1
20260506021545 61 219 0.0 0.0 0.00 0.00 0.00 89 1011.1
20260506020946 61 220 0.0 0.0 0.00 0.00 0.00 89 1010.8
20260506020333 61 221 0.0 0.0 0.00 0.00 0.00 89 1011.1
20260506015719 61 227 0.0 0.0 0.00 0.00 0.00 89 1010.8
20260506015150 62 211 0.0 0.0 0.00 0.00 0.00 89 1010.8
20260506014532 62 167 0.0 0.0 0.00 0.00 0.00 88 1011.1
20260506013937 62 234 0.0 0.0 0.00 0.00 0.00 89 1011.1
20260506013345 62 225 0.0 0.0 0.00 0.00 0.00 88 1011.1
20260506012147 63 223 0.0 0.0 0.00 0.00 0.00 87 1011.1
20260506010911 64 241 0.0 0.0 0.00 0.00 0.00 85 1011.1
20260506003348 66 227 0.0 0.0 0.00 0.00 0.00 79 1011.5
20260506002745 66 206 0.0 0.0 0.00 0.00 0.00 77 1011.5
20260506002128 66 239 0.0 0.0 0.00 0.00 0.00 80 1011.5
20260506001517 66 234 0.0 0.0 0.00 0.00 0.00 79 1011.8
20260506000919 67 236 0.0 0.0 0.00 0.00 0.00 78 1011.8
20260506000349 67 236 0.0 0.0 0.00 0.00 0.00 77 1011.8
20260505235739 68 240 0.0 0.0 0.00 0.00 0.00 75 1011.8
20260505235119 68 238 0.0 0.0 0.00 0.00 0.00 73 1011.8
20260505234527 68 233 0.0 0.0 0.00 0.00 0.00 74 1011.8
20260505233341 70 231 0.0 0.0 0.00 0.00 0.00 72 1011.8
20260505232713 70 256 0.0 0.0 0.00 0.00 0.00 71 1011.8
20260505232150 71 231 0.0 0.0 0.00 0.00 0.00 66 1011.8
20260505231552 72 99 0.0 0.0 0.00 0.00 0.00 65 1012.1
20260505230932 73 235 0.0 0.0 0.00 0.00 0.00 69 1012.1
20260505230345 74 212 0.0 0.0 0.00 0.00 0.00 55 1012.1
20260505225114 75 239 0.0 0.0 0.00 0.00 0.00 48 1011.8
20260505224513 75 112 0.0 0.0 0.00 0.00 0.00 46 1011.8
20260505223921 75 156 1.0 2.0 0.00 0.00 0.00 45 1011.8
20260505223312 75 70 2.0 2.0 0.00 0.00 0.00 45 1011.8
20260505222747 76 220 0.0 0.0 0.00 0.00 0.00 49 1011.8
20260505222114 76 305 1.0 5.0 0.00 0.00 0.00 44 1011.8
20260505221516 76 208 0.0 2.0 0.00 0.00 0.00 44 1012.1
20260505220313 77 223 1.0 5.0 0.00 0.00 0.00 43 1011.8
20260505215741 78 316 3.0 5.0 0.00 0.00 0.00 43 1011.8
20260505215149 78 219 3.0 5.0 0.00 0.00 0.00 44 1011.8
20260505214545 78 122 2.0 5.0 0.00 0.00 0.00 41 1011.8
20260505213941 78 227 0.0 0.0 0.00 0.00 0.00 42 1012.1
20260505213316 77 212 4.0 7.0 0.00 0.00 0.00 42 1011.8
20260505212742 77 52 0.0 0.0 0.00 0.00 0.00 43 1011.8
20260505212124 77 163 2.0 5.0 0.00 0.00 0.00 43 1011.8
20260505211527 78 77 3.0 7.0 0.00 0.00 0.00 43 1011.8
20260505210344 78 138 3.0 5.0 0.00 0.00 0.00 44 1012.5
20260505205752 78 85 4.0 7.0 0.00 0.00 0.00 42 1012.1
20260505205138 78 257 1.0 2.0 0.00 0.00 0.00 47 1012.1
20260505204543 78 25 1.0 2.0 0.00 0.00 0.00 44 1012.5
20260505203317 77 359 7.0 10.0 0.00 0.00 0.00 46 1012.8
20260505202754 77 340 6.0 7.0 0.00 0.00 0.00 44 1012.5
20260505202112 76 287 3.0 5.0 0.00 0.00 0.00 46 1012.8
20260505201532 76 19 0.0 2.0 0.00 0.00 0.00 46 1012.8
20260505200940 76 284 0.0 0.0 0.00 0.00 0.00 46 1012.8
20260505195709 76 7 4.0 7.0 0.00 0.00 0.00 46 1012.8
20260505194543 76 334 5.0 10.0 0.00 0.00 0.00 45 1013.2
20260505193940 76 73 3.0 5.0 0.00 0.00 0.00 45 1013.2
20260505193332 76 197 3.0 5.0 0.00 0.00 0.00 45 1013.5
20260505192115 76 37 7.0 10.0 0.00 0.00 0.00 45 1013.5
20260505190931 77 152 5.0 7.0 0.00 0.00 0.00 46 1013.5
20260505190336 77 2 2.0 2.0 0.00 0.00 0.00 46 1013.5
20260505185752 77 59 1.0 2.0 0.00 0.00 0.00 47 1013.5
20260505185140 77 355 4.0 5.0 0.00 0.00 0.00 46 1014.2
20260505184551 77 88 1.0 5.0 0.00 0.00 0.00 44 1013.8
20260505183341 76 219 2.0 2.0 0.00 0.00 0.00 45 1014.2
20260505181514 76 98 4.0 7.0 0.00 0.00 0.00 44 1014.2
20260505180926 76 31 2.0 5.0 0.00 0.00 0.00 46 1014.2
20260505180313 76 320 2.0 5.0 0.00 0.00 0.00 45 1014.5
20260505175713 76 117 4.0 5.0 0.00 0.00 0.00 45 1014.2
20260505175125 76 39 4.0 5.0 0.00 0.00 0.00 47 1014.2
20260505174525 76 52 6.0 10.0 0.00 0.00 0.00 46 1014.5
20260505173933 76 48 5.0 7.0 0.00 0.00 0.00 47 1014.5
20260505173350 76 4 2.0 5.0 0.00 0.00 0.00 48 1014.5
20260505172720 76 49 1.0 2.0 0.00 0.00 0.00 49 1014.5
20260505172131 76 48 7.0 12.0 0.00 0.00 0.00 46 1014.5
20260505171517 76 152 0.0 2.0 0.00 0.00 0.00 47 1014.5
20260505170939 76 210 4.0 10.0 0.00 0.00 0.00 47 1014.5
20260505170328 76 253 7.0 10.0 0.00 0.00 0.00 48 1014.5
20260505165708 76 199 0.0 2.0 0.00 0.00 0.00 48 1014.5
20260505165110 76 351 2.0 2.0 0.00 0.00 0.00 47 1014.2
20260505164512 76 324 4.0 7.0 0.00 0.00 0.00 47 1014.5
20260505163952 76 253 0.0 2.0 0.00 0.00 0.00 46 1014.5
20260505163316 76 111 8.0 12.0 0.00 0.00 0.00 47 1014.5
20260505162718 76 56 4.0 5.0 0.00 0.00 0.00 47 1014.5
20260505162148 76 7 4.0 7.0 0.00 0.00 0.00 47 1014.9
20260505161535 76 57 7.0 10.0 0.00 0.00 0.00 47 1014.9
20260505160921 76 129 2.0 5.0 0.00 0.00 0.00 48 1014.9
20260505160344 76 302 0.0 0.0 0.00 0.00 0.00 47 1014.9
20260505153319 75 210 2.0 5.0 0.00 0.00 0.00 49 1014.9
20260505152748 75 215 4.0 5.0 0.00 0.00 0.00 50 1014.5
20260505152114 75 338 4.0 10.0 0.00 0.00 0.00 49 1014.9
20260505151546 75 7 6.0 10.0 0.00 0.00 0.00 48 1014.9
20260505150942 74 355 5.0 7.0 0.00 0.00 0.00 52 1014.9
20260505150331 74 104 4.0 7.0 0.00 0.00 0.00 51 1014.9
20260505140322 72 0 6.0 12.0 0.00 0.00 0.00 52 1014.9
20260505124537 66 214 0.0 0.0 0.00 0.00 0.00 58 1014.9
20260505123916 64 184 0.0 0.0 0.00 0.00 0.00 61 1014.9
20260505123326 62 72 0.0 2.0 0.00 0.00 0.00 68 1014.9
20260505122715 61 100 3.0 5.0 0.00 0.00 0.00 71 1014.9
20260505122122 60 114 1.0 5.0 0.00 0.00 0.00 77 1014.9
20260505120935 59 170 0.0 0.0 0.00 0.00 0.00 83 1014.9
20260505120316 58 63 4.0 7.0 0.00 0.00 0.00 84 1014.5
20260505115721 58 101 3.0 5.0 0.00 0.00 0.00 85 1014.9
20260505115152 57 211 0.0 0.0 0.00 0.00 0.00 85 1014.9
20260505114514 57 221 1.0 2.0 0.00 0.00 0.00 83 1014.9
20260505113925 57 155 0.0 0.0 0.00 0.00 0.00 87 1014.5
20260505113317 57 205 0.0 0.0 0.00 0.00 0.00 86 1014.5
20260505112135 57 67 2.0 2.0 0.00 0.00 0.00 86 1014.2
20260505111538 57 189 0.0 2.0 0.00 0.00 0.00 85 1014.5
20260505110926 57 106 2.0 5.0 0.00 0.00 0.00 84 1014.5
20260505110324 57 135 0.0 2.0 0.00 0.00 0.00 85 1014.2